Torna al catalogo

FENGYUN 1C DEB

AttivoSSO
NORAD 29988·DEBRIS·🇨🇳 China

Lanciato May 10, 1999 da Taiyuan Satellite Launch Center

Loading…

Prossimi Passaggi (prossime 24 ore)

TLE

AggiornatoSource: Space-Track

Epoca: Sep 14, 2026, 07:02 UTC

1 29988U 99025LN  26257.29309301  .00004453  00000-0  97429-3 0  9990
2 29988  98.7080  16.3880 0112081 259.5455 128.9661 14.54432211 20657

Traccia FENGYUN 1C DEB in tempo reale con AllMySat

Download on the App Store